STARLINK-32631, 62235

Orbit data source: Space-Track

STARLINK-32631, 62235 is a payload satellite owned by SpaceX/Seattle (US) in LEO that was launched on Thu, 05 Dec 2024 UTC via an FALCON 9 launch vehicle from the Air Force Western Test Range (AFWTR). Payloads include a variety of satellites, spacecraft, and rockets equipped with specific instruments for various scientific and technological missions. These include communications satellites like Starlink; space stations such as the ISS; scientific satellites like the Hubble; Earth observation satellites from companies like Planet Labs, Umbra, and HawkEye 360; GPS; miniature CubeSats for education and research; and military/defense satellites.

Loading next visibility...
STARLINK-32631 details
Identifier
62235, 2024-231T
Orbit
LEO
Last TLE update15 hours ago
Origin
Flag of USSpaceX/Seattle (US)
ManufacturerSpaceX/Seattle
MissionOperational spacecraft
Bus & MotorSTARLINK V2M, Unknown motor
Mass730 kg wet, ~700 kg dry
Launch date (UTC)
2024-12-05 (2 months ago)
Launch vehicle
FALCON 9
Launch site
Air Force Western Test Range (AFWTR)
Object type
Payload
Rocket body
Debris
Shape & HBRUnknown
Radar Cross SectionLarge (>1 m²)

Expand to show TLE details & history

TLE from 15 hours ago
0 STARLINK-32631
1 62235U 24231T   25025.19783149 -.00007137  00000-0 -16869-3 0  9999
2 62235  53.1579 322.2101 0001376 151.0755 209.0327 15.39606143  9147
Epoch: 2025-01-25T04:44Z
Definitive object data (Epoch: 2025-01-25T04:44:52.64Z)
Latitude0.00002°
Longitude126.24069°
Altitude448.997 km
Speed7.644 km/s
True Right ascension21h 28m 50s
True Declination0° 00' 00"
Sunlit
Object was in daylight at TLE epoch
Visualization TLE readout
Latitude-1.10731°
Longitude-55.84187°
Altitude447.524 km
Speed7.645 km/s
Apparent Right ascension09h 09m 30s
Apparent Declination-19° 44' 55"
Sunlit
Object is in full shadow
Visualization observer readout
Local Sidereal Time20:54:10
Azimuth349.619° N
Elevation-69.566°
Doppler factor1
Orbital elements
Apogee altitude448.47 km
Perigee altitude446.592 km
Semi-major axis6,825.668 km
Eccentricity0.0001376
Inclination53.1579°
RAAN322.2101°
Arg. of periapsis151.0755°
True anomaly209.02505°
Mean anomaly209.0327°
Eccentric anomaly209.02887°
Mean motion3.8488 °/min
BSTAR-0.00016869
Orbital period93.54 mins
Loading maneuver chart data...
Loading historical data...
Loading historical data...
Loading historical data...
Loading historical data...
Loading historical data...
Loading historical data...
Loading historical data...

STARLINK-32631 Visibility forecast

Observer location: undefined°, undefined

Span
Click to sort rows by Start time (UTC) header in descending order
Start Az.
Max El. time (UTC)
Max El. Az.
Max El.
End time (UTC)
End Az.
6 mins2025-01-25 22:03:13.117Z210.876° SW2025-01-25 22:06:13.117Z127.279° SE38.382°2025-01-25 22:09:13.117Z59.786° ENE
4 mins2025-01-25 23:42:13.117Z299.905° NW2025-01-25 23:43:13.117Z323.133° NNW20.592°2025-01-25 23:46:13.117Z25.124° NE
4 mins2025-01-26 04:37:13.117Z341.567° N2025-01-26 04:38:13.117Z15.101° NNE33.514°2025-01-26 04:41:13.117Z103.7° ESE
4 mins2025-01-26 06:14:13.117Z262.742° W2025-01-26 06:15:13.117Z241.428° WSW18.601°2025-01-26 06:18:13.117Z182.302° SSW
|